Content
SEND FEEDBACK

Daily
Averages
Monthly
Summary
Canada

STE. DOROTHEE, QUEBEC


Home > North America > Canada > Quebec
Elevation: 75 feet     Latitude: 45 31N     Longitude: 73 47W

WEATHER
 
SELECT A DAY
Number of Records: 198,548;   Date Range: 1/1/95 - 8/27/14
 
SHARE

PRINT THIS DATA

[ ← Previous Day ]
WEATHER ALMANAC - MARCH 28, 2013
[ Next Day → ]
[ °C ]   °F
Weather ElementAverageHighLow
Temperature39.9 °F48.2 °F (5:00 pm)33.8 °F (4:00 am)
Dewpoint34.3 °F36 °F (8:00 am)32 °F (1:00 am)
Humidity81.1 %100 % (4:00 am)54 % (8:00 pm)
Barometer30.00 in30.05 in (10:00 pm)29.94 in (1:00 am)
Wind Speed6.9 mph11.5 mph (2:00 pm)
Weather ElementAverage
Visibility11.7 mi
Wind DirectionSSW (194.9 °)

Weather ElementTotal
Precipitation---
Heating Degree Days24 (Base 65)
Averaged from 35 records on March 28, 2013
WEATHER CONDITIONS BREAKOUT
WIND DIRECTION BREAKOUT
WEATHER BY HOUR - MARCH 28, 2013
[ °C ]   °F
Local TimeTemperatureDewpointHumidityBarometerVisibilityWind DirectionWind SpeedGust SpeedPrecipitationEventsConditions
1:00 AM37.4 °F32.0 °F81 %29.94 in15.0 miSSW (210°)4.6 mphRainLight Rain
2:00 AM36.0 °F33.0 °F86 %29.94 in15.0 miSouth (170°)4.6 mphRainLight Rain
2:00 AM35.6 °F33.8 °F93 %29.94 in15.0 miSouth (170°)4.6 mphRainLight Rain
2:39 AM35.6 °F33.8 °F93 %29.94 in15.0 miSW (230°)4.6 mphMostly Cloudy
3:00 AM35.6 °F32.0 °F87 %29.94 in15.0 miWSW (240°)5.8 mphMostly Cloudy
4:00 AM33.8 °F33.8 °F100 %29.95 in15.0 miCalmMostly Cloudy
5:00 AM33.8 °F33.8 °F100 %29.96 in12.0 miNorth (350°)6.9 mphMostly Cloudy
5:04 AM35.6 °F33.8 °F93 %29.96 in6.0 miNorth (360°)8.1 mphOvercast
5:08 AM33.8 °F33.8 °F100 %29.96 in1.0 miNorth (360°)8.1 mphOvercast
5:12 AM33.8 °F33.8 °F100 %29.96 in0.2 miNorth (360°)6.9 mphFogFog
5:38 AM33.8 °F33.8 °F100 %29.97 in0.8 miNNE (30°)6.9 mphOvercast
5:47 AM33.8 °F33.8 °F100 %29.97 in2.5 miNNE (30°)8.1 mphOvercast
6:00 AM35.6 °F33.8 °F93 %29.97 in4.0 miNNE (30°)6.9 mphOvercast
7:00 AM35.6 °F35.6 °F100 %29.99 in6.0 miNNE (30°)5.8 mphMostly Cloudy
8:00 AM38.0 °F36.0 °F90 %30.01 in6.0 miENE (70°)3.5 mphPartly Cloudy
8:00 AM37.4 °F35.6 °F93 %30.00 in6.0 miENE (70°)3.5 mphOvercast
8:17 AM39.2 °F35.6 °F87 %30.01 in6.0 miEast (100°)3.5 mphOvercast
9:00 AM39.2 °F35.6 °F87 %30.01 in8.0 miSSE (150°)3.5 mphMostly Cloudy
10:00 AM41.0 °F35.6 °F81 %30.03 in8.0 miSouth (180°)4.6 mphMostly Cloudy
11:00 AM41.0 °F35.6 °F81 %30.04 in12.0 miSSW (210°)4.6 mphMostly Cloudy
12:00 PM42.8 °F35.6 °F76 %30.04 in15.0 miSouth (190°)6.9 mphMostly Cloudy
1:00 PM42.8 °F35.6 °F76 %30.03 in15.0 miSSW (200°)10.4 mphScattered Clouds
2:00 PM45.0 °F36.0 °F61 %30.03 in15.0 miSSW (200°)11.5 mphScattered Clouds
2:00 PM44.6 °F35.6 °F71 %30.03 in15.0 miSSW (200°)11.5 mphScattered Clouds
3:00 PM46.4 °F33.8 °F62 %30.02 in15.0 miSSW (210°)11.5 mphPartly Cloudy
4:00 PM46.4 °F33.8 °F62 %30.01 in15.0 miSSW (210°)11.5 mphPartly Cloudy
5:00 PM48.2 °F35.6 °F62 %30.01 in15.0 miSW (220°)10.4 mphScattered Clouds
6:00 PM46.4 °F33.8 °F62 %30.01 in15.0 miSW (230°)11.5 mphMostly Cloudy
7:00 PM46.4 °F33.8 °F62 %30.02 in30.0 miWSW (250°)11.5 mphMostly Cloudy
8:00 PM45.0 °F34.0 °F54 %30.04 in15.0 miWest (270°)9.2 mphOvercast
8:00 PM44.6 °F33.8 °F66 %30.04 in15.0 miWest (280°)8.1 mphOvercast
8:17 PM44.6 °F33.8 °F66 %30.04 in15.0 miWNW (300°)5.8 mphRainLight Rain Showers
9:00 PM44.6 °F33.8 °F66 %30.04 in15.0 miSW (230°)6.9 mphRainLight Rain Showers
10:00 PM42.8 °F33.8 °F70 %30.05 in15.0 miWSW (250°)4.6 mphMostly Cloudy
11:00 PM41.0 °F33.8 °F76 %30.04 in15.0 miSW (230°)4.6 mphMostly Cloudy
Hourly data recorded from CYUL, located miles away from Ste. Dorothee, Quebec







STORIES FROM OUR PARTNERS